Regional Weather Roundup
Issued by NWS

Home | Current Version | Previous Version | Graphics & Text | Print | Product List | Glossary Off
Versions: 1 2 3 4 5 6 7 8 9 10 11 12 13 14 15 16 17 18 19 20 21 22 23 24 25 26 27 28 29 30 31 32 33 34 35 36 37 38 39 40 41 42 43 44 45 46 47 48 49 50

000
ASUS43 KLSX 110610
RWRMO

WEATHER SUMMARY FOR MISSOURI
NATIONAL WEATHER SERVICE SPRINGFIELD MO
1200 AM CST THU FEB 11 2016

NOTE: "FAIR" INDICATES FEW OR NO CLOUDS BELOW 12,000 FEET WITH NO
       SIGNIFICANT WEATHER AND/OR OBSTRUCTIONS TO VISIBILITY.
       CURRENT SKY AND/OR WEATHER CONDITIONS ARE NOT AVAILABLE FOR
       CHILLICOTHE AND FARMINGTON.

MOZ001>031-035>038-043-044-053-054-110700-
...NORTHERN AND WESTERN MISSOURI...

CITY           SKY/WX    TMP DP  RH WIND       PRES   REMARKS
KANSAS CTY INT CLEAR     25  21  85 NE12      30.09R WCI  14
6HR MIN TEMP:  25; 6HR MAX TEMP:  44;

KANSAS C DTWN  CLEAR     27  21  78 NE10      30.09R WCI  17
6HR MIN TEMP:  27; 6HR MAX TEMP:  45;

LEE`S SUMMIT   CLEAR     26  20  77 NE14      30.07R WCI  14
6HR MIN TEMP:  26; 6HR MAX TEMP:  43;

ST JOSEPH      CLOUDY    27  20  75 E13       30.13R WCI  16
6HR MIN TEMP:  26; 6HR MAX TEMP:  41;

CHILLICOTHE      N/A     25  18  74 NE8       30.16R WCI  16
6HR MIN TEMP:  25; 6HR MAX TEMP:  28;

KIRKSVILLE     CLOUDY    20  16  84 E7        30.15S WCI  11
6HR MIN TEMP:  20; 6HR MAX TEMP:  21;


$$
MOZ066>068-077>081-088>096-101>105-110700-
...SOUTHWEST MISSOURI...

CITY           SKY/WX    TMP DP  RH WIND       PRES   REMARKS
SPRINGFIELD    CLEAR     34  17  50 SE9       29.98R WCI  27
6HR MIN TEMP:  33; 6HR MAX TEMP:  46;

JOPLIN         PTCLDY    37  23  56 NE5       29.96S
6HR MIN TEMP:  36; 6HR MAX TEMP:  49;


$$
MOZ032>034-039>042-045>050-055>058-069>072-110700-
...CENTRAL MISSOURI...

CITY           SKY/WX    TMP DP  RH WIND       PRES   REMARKS
COLUMBIA       CLOUDY    24  19  81 E9        30.10R WCI  14
6HR MIN TEMP:  22; 6HR MAX TEMP:  25;

JEFFERSON CITY CLOUDY    25  19  78 E8        30.11S WCI  16
6HR MIN TEMP:  24; 6HR MAX TEMP:  27;

ROLLA          CLOUDY    23  17  78 E6        30.05R WCI  16
6HR MIN TEMP:  22; 6HR MAX TEMP:  26;

SEDALIA        CLOUDY    27  20  75 NE12      30.08R WCI  17
6HR MIN TEMP:  26; 6HR MAX TEMP:  31;

WHITEMAN AFB   MOCLDY    27  21  77 NE13      30.06R WCI  16
WARRENSBURG    PTCLDY    27  21  80 N9        30.08R WCI  17
OSAGE BEACH    CLEAR     25  16  68 NE5       30.04S WCI  19

$$
MOZ051-052-059>065-110700-
...EAST CENTRAL MISSOURI...

CITY           SKY/WX    TMP DP  RH WIND       PRES   REMARKS
ST LOUIS INTL  CLOUDY    24  19  81 NE7       30.16S WCI  16
6HR MIN TEMP:  23; 6HR MAX TEMP:  24; 6HR PCP: TRACE;

SPIRIT OF STL  CLOUDY    24  20  84 NE7       30.14F WCI  16
6HR MIN TEMP:  22; 6HR MAX TEMP:  24;

ST CHARLES     CLOUDY    22  19  89 E7        30.17S WCI  13
6HR MIN TEMP:  21; 6HR MAX TEMP:  22; 6HR PCP: TRACE;


$$
MOZ072>076-082>087-097>100-106>115-110700-
...SOUTH CENTRAL AND SOUTHEAST MISSOURI...

CITY           SKY/WX    TMP DP  RH WIND       PRES   REMARKS
CAPE GIRARDEAU CLOUDY    22  18  85 E6        30.15F WCI  14
6HR MIN TEMP:  22; 6HR MAX TEMP:  25;

FARMINGTON     CLOUDY    18  15  88 E6        30.11S WCI  10
6HR MIN TEMP:  18; 6HR MAX TEMP:  24;

POPLAR BLUFF   CLEAR     24  18  77 NE6       30.11F WCI  17
6HR MIN TEMP:  23; 6HR MAX TEMP:  31;

WEST PLAINS    CLEAR     27   9  46 E8        30.04F WCI  19
6HR MIN TEMP:  26; 6HR MAX TEMP:  39;


$$



USA.gov is the U.S. government's official web portal to all federal, state and local government web resources and services.